N0DZQ Weather Reports


time (UTC)temp
C
wind
direction
speed
KPH
gust
KPH
rain 1hr
cm
rain 24hr
cm
rain mn
cm
humidity
%
barometer
mb
20260504050558 7 0 0.0 0.0 0.00 0.00 0.00 74 1002.4
20260504050106 7 0 0.0 0.0 0.00 0.00 0.00 72 1002.5
20260504045558 7 0 0.0 0.0 0.00 0.00 0.00 75 1002.4
20260504045059 7 0 0.0 0.0 0.00 0.00 0.00 76 1002.6
20260504044601 7 0 0.0 0.0 0.00 0.00 0.00 77 1002.7
20260504044059 7 0 0.0 0.0 0.00 0.00 0.00 75 1002.8
20260504043559 7 0 0.0 0.0 0.00 0.00 0.00 76 1003.0
20260504043059 7 0 0.0 0.0 0.00 0.00 0.00 74 1002.9
20260504042559 7 0 0.0 0.0 0.00 0.00 0.00 74 1003.1
20260504042059 7 0 0.0 0.0 0.00 0.00 0.00 77 1003.2
20260504041605 7 0 0.0 0.0 0.00 0.00 0.00 74 1003.3
20260504041100 7 0 0.0 0.0 0.00 0.00 0.00 76 1003.5
20260504040556 7 0 0.0 0.0 0.00 0.00 0.00 76 1003.5
20260504035556 7 0 0.0 0.0 0.00 0.00 0.00 75 1003.7
20260504035056 8 0 0.0 0.0 0.00 0.00 0.00 75 1003.7
20260504034600 7 0 0.0 0.0 0.00 0.00 0.00 71 1003.8
20260504034059 8 0 0.0 0.0 0.00 0.00 0.00 73 1003.9
20260504033557 8 0 0.0 0.0 0.00 0.00 0.00 72 1004.0
20260504033057 8 0 0.0 0.0 0.00 0.00 0.00 72 1004.2
20260504032557 8 0 0.0 0.0 0.00 0.00 0.00 71 1004.2
20260504032058 8 0 0.0 0.0 0.00 0.00 0.00 71 1004.3
20260504031600 8 0 0.0 0.0 0.00 0.00 0.00 70 1004.4
20260504031056 9 0 0.0 0.0 0.00 0.00 0.00 68 1004.4
20260504030556 9 0 0.0 0.0 0.00 0.00 0.00 67 1004.5
20260504030100 9 0 0.0 0.0 0.00 0.00 0.00 66 1004.5
20260504025600 9 0 0.0 0.0 0.00 0.00 0.00 67 1004.6
20260504025059 10 0 0.0 0.0 0.00 0.00 0.00 69 1004.7
20260504024617 10 0 0.0 0.0 0.00 0.00 0.00 60 1004.7
20260504024059 10 0 0.0 0.0 0.00 0.00 0.00 60 1004.8
20260504023556 10 0 0.0 0.0 0.00 0.00 0.00 63 1004.8
20260504023058 11 0 0.0 0.0 0.00 0.00 0.00 63 1004.8
20260504022602 11 0 0.0 0.0 0.00 0.00 0.00 57 1004.7
20260504022056 11 0 0.0 0.0 0.00 0.00 0.00 61 1004.8
20260504021600 11 0 0.0 0.0 0.00 0.00 0.00 57 1004.7
20260504021102 11 0 0.0 0.0 0.00 0.00 0.00 57 1004.8
20260504020557 12 0 0.0 0.0 0.00 0.00 0.00 64 1004.7
20260504015557 13 0 0.0 0.0 0.00 0.00 0.00 52 1004.7
20260504015057 13 0 0.0 0.0 0.00 0.00 0.00 45 1004.7
20260504014606 13 0 0.0 1.6 0.00 0.00 0.00 45 1004.8
20260504014058 14 0 0.0 1.6 0.00 0.00 0.00 44 1004.8
20260504013556 14 0 0.0 0.0 0.00 0.00 0.00 44 1004.7
20260504013101 15 0 0.0 1.6 0.00 0.00 0.00 42 1004.8
20260504012557 15 0 0.0 1.6 0.00 0.00 0.00 41 1004.9
20260504012058 15 0 0.0 1.6 0.00 0.00 0.00 41 1004.9
20260504011559 15 0 0.0 0.0 0.00 0.00 0.00 40 1004.9
20260504011058 16 0 0.0 0.0 0.00 0.00 0.00 39 1004.9
20260504010602 16 0 0.0 0.0 0.00 0.00 0.00 39 1004.9
20260504010105 16 0 0.0 0.0 0.00 0.00 0.00 38 1004.9
20260504005559 17 0 0.0 4.8 0.00 0.00 0.00 37 1004.9
20260504005059 17 0 0.0 4.8 0.00 0.00 0.00 37 1005.0
20260504004601 17 0 0.0 1.6 0.00 0.00 0.00 36 1005.1
20260504004058 18 0 0.0 4.8 0.00 0.00 0.00 34 1004.9
20260504003557 18 0 0.0 4.8 0.00 0.00 0.00 33 1005.0
20260504003108 18 169 0.0 3.2 0.00 0.00 0.00 34 1005.1
20260504002557 18 0 1.6 3.2 0.00 0.00 0.00 33 1005.1
20260504002057 18 0 0.0 3.2 0.00 0.00 0.00 36 1005.2
20260504001557 18 285 0.0 4.8 0.00 0.00 0.00 33 1005.2
20260504001057 18 0 0.0 4.8 0.00 0.00 0.00 34 1005.2
20260504000557 18 249 0.0 6.4 0.00 0.00 0.00 35 1005.3
20260504000139 18 267 1.6 6.4 0.00 0.00 0.00 31 1005.2
20260503235557 19 0 0.0 6.4 0.00 0.00 0.00 30 1005.2
20260503235102 20 217 0.0 8.0 0.00 0.00 0.00 31 1005.2
20260503234601 20 301 0.0 8.0 0.00 0.00 0.00 30 1005.1
20260503234101 20 232 1.6 16.1 0.00 0.00 0.00 28 1005.2
20260503233558 20 295 3.2 16.1 0.00 0.00 0.00 27 1005.1
20260503233057 20 323 1.6 16.1 0.00 0.00 0.00 28 1005.1
20260503232557 20 15 3.2 14.5 0.00 0.00 0.00 27 1005.2
20260503232057 20 291 0.0 9.7 0.00 0.00 0.00 30 1005.2
20260503231600 20 290 1.6 9.7 0.00 0.00 0.00 28 1005.2
20260503231057 20 288 1.6 4.8 0.00 0.00 0.00 27 1005.4
20260503230559 21 291 1.6 14.5 0.00 0.00 0.00 28 1005.4
20260503230058 21 0 1.6 14.5 0.00 0.00 0.00 29 1005.4
20260503225556 20 217 4.8 9.7 0.00 0.00 0.00 28 1005.5
20260503225058 21 279 3.2 9.7 0.00 0.00 0.00 27 1005.5
20260503224600 21 199 3.2 12.9 0.00 0.00 0.00 27 1005.6
20260503224057 21 303 4.8 12.9 0.00 0.00 0.00 28 1005.5
20260503223600 21 0 1.6 8.0 0.00 0.00 0.00 27 1005.3
20260503223100 21 252 0.0 8.0 0.00 0.00 0.00 26 1005.5
20260503222556 21 289 1.6 9.7 0.00 0.00 0.00 28 1005.6
20260503222057 20 332 3.2 9.7 0.00 0.00 0.00 29 1005.6
20260503221600 20 245 3.2 12.9 0.00 0.00 0.00 28 1005.7
20260503221056 20 232 4.8 12.9 0.00 0.00 0.00 28 1005.7
20260503220557 21 291 1.6 12.9 0.00 0.00 0.00 29 1005.8
20260503220100 20 297 3.2 14.5 0.00 0.00 0.00 27 1005.8
20260503215559 20 314 4.8 14.5 0.00 0.00 0.00 26 1006.0
20260503215057 20 142 6.4 14.5 0.00 0.00 0.00 27 1006.0
20260503214601 20 297 4.8 11.3 0.00 0.00 0.00 27 1006.0
20260503214056 20 320 4.8 19.3 0.00 0.00 0.00 26 1005.9
20260503213557 20 281 6.4 19.3 0.00 0.00 0.00 29 1006.0
20260503213107 21 313 4.8 11.3 0.00 0.00 0.00 25 1006.1
20260503212600 21 236 1.6 11.3 0.00 0.00 0.00 28 1006.1
20260503212057 21 321 3.2 11.3 0.00 0.00 0.00 26 1006.0
20260503211619 21 22 4.8 14.5 0.00 0.00 0.00 26 1006.0
20260503211056 21 280 3.2 14.5 0.00 0.00 0.00 26 1005.9
20260503210556 21 265 6.4 14.5 0.00 0.00 0.00 27 1006.0
20260503210101 20 278 3.2 12.9 0.00 0.00 0.00 27 1006.2
20260503205557 20 294 4.8 12.9 0.00 0.00 0.00 25 1006.2
20260503205059 20 13 3.2 11.3 0.00 0.00 0.00 26 1006.2
20260503204559 20 259 4.8 11.3 0.00 0.00 0.00 27 1006.4
20260503204056 21 1 4.8 11.3 0.00 0.00 0.00 26 1006.1
20260503203556 20 0 4.8 12.9 0.00 0.00 0.00 27 1006.2
20260503203113 21 313 3.2 16.1 0.00 0.00 0.00 27 1006.3
20260503202556 20 63 4.8 16.1 0.00 0.00 0.00 28 1006.3
20260503202101 20 38 4.8 11.3 0.00 0.00 0.00 28 1006.2
20260503201558 20 309 1.6 12.9 0.00 0.00 0.00 30 1006.3
20260503201058 20 354 6.4 12.9 0.00 0.00 0.00 29 1006.2
20260503200601 20 339 6.4 12.9 0.00 0.00 0.00 28 1006.5
20260503200057 20 264 3.2 12.9 0.00 0.00 0.00 30 1006.4
20260503195557 20 340 6.4 12.9 0.00 0.00 0.00 29 1006.4
20260503195056 20 320 4.8 19.3 0.00 0.00 0.00 29 1006.4
20260503194558 20 214 6.4 19.3 0.00 0.00 0.00 30 1006.5
20260503194057 21 298 4.8 14.5 0.00 0.00 0.00 32 1006.4
20260503193558 21 356 3.2 12.9 0.00 0.00 0.00 38 1006.6
20260503193058 20 306 6.4 12.9 0.00 0.00 0.00 33 1006.6
20260503192558 20 333 4.8 12.9 0.00 0.00 0.00 35 1006.6
20260503192056 20 278 3.2 20.9 0.00 0.00 0.00 36 1006.5
20260503191609 20 355 3.2 20.9 0.00 0.00 0.00 38 1006.7
20260503191057 20 348 8.0 20.9 0.00 0.00 0.00 33 1006.7
20260503190557 20 268 4.8 12.9 0.00 0.00 0.00 34 1006.8
20260503190056 20 307 6.4 12.9 0.00 0.00 0.00 37 1006.7
20260503185558 20 281 4.8 12.9 0.00 0.00 0.00 35 1006.7
20260503185057 20 296 4.8 14.5 0.00 0.00 0.00 40 1006.8
20260503184559 20 334 6.4 14.5 0.00 0.00 0.00 40 1006.8
20260503184059 20 286 3.2 16.1 0.00 0.00 0.00 39 1006.8
20260503183556 20 4 3.2 16.1 0.00 0.00 0.00 40 1006.8
20260503183059 20 284 4.8 14.5 0.00 0.00 0.00 43 1006.9
20260503182556 20 7 6.4 14.5 0.00 0.00 0.00 38 1007.0
20260503182058 20 300 3.2 8.0 0.00 0.00 0.00 37 1007.0
20260503181605 20 8 1.6 12.9 0.00 0.00 0.00 38 1007.1
20260503181057 19 330 4.8 12.9 0.00 0.00 0.00 42 1007.2
20260503180558 19 291 6.4 22.5 0.00 0.00 0.00 37 1007.2
20260503180112 19 224 6.4 22.5 0.00 0.00 0.00 36 1007.1
20260503175559 19 320 4.8 14.5 0.00 0.00 0.00 38 1007.3
20260503175056 19 354 4.8 14.5 0.00 0.00 0.00 39 1007.2
20260503174600 19 319 6.4 14.5 0.00 0.00 0.00 40 1007.2
20260503174059 19 320 6.4 14.5 0.00 0.00 0.00 39 1007.2
20260503173558 19 19 6.4 16.1 0.00 0.00 0.00 43 1007.3
20260503173102 19 43 4.8 16.1 0.00 0.00 0.00 43 1007.2
20260503172600 19 315 6.4 20.9 0.00 0.00 0.00 41 1007.4
20260503172057 19 295 4.8 20.9 0.00 0.00 0.00 43 1007.4
20260503171600 19 312 6.4 20.9 0.00 0.00 0.00 43 1007.4
20260503171057 19 303 3.2 17.7 0.00 0.00 0.00 44 1007.4
20260503170557 19 321 3.2 17.7 0.00 0.00 0.00 46 1007.3
20260503150556 17 309 4.8 12.9 0.00 0.00 0.00 50 1007.1
20260503150103 16 346 3.2 12.9 0.00 0.00 0.00 50 1007.2
20260503131056 13 0 1.6 8.0 0.00 0.00 0.00 55 1006.5
20260503130559 13 262 1.6 8.0 0.00 0.00 0.00 55 1006.4
20260503130104 13 285 1.6 4.8 0.00 0.00 0.00 54 1006.4
20260503110558 8 0 0.0 0.0 0.00 0.00 0.00 64 1005.6
20260503081557 11 0 0.0 1.6 0.00 0.00 0.00 67 1006.0
20260503081100 11 0 0.0 1.6 0.00 0.00 0.00 66 1006.1
20260503080600 11 0 0.0 1.6 0.00 0.00 0.00 66 1006.1
20260503072557 11 0 0.0 1.6 0.00 0.00 0.00 65 1006.5
20260503072057 11 0 0.0 1.6 0.00 0.00 0.00 64 1006.6
20260503071604 11 0 0.0 1.6 0.00 0.00 0.00 65 1006.8
20260503071056 11 33 0.0 0.0 0.00 0.00 0.00 64 1006.9
20260503070556 11 0 0.0 1.6 0.00 0.00 0.00 64 1007.0
20260503070105 11 0 0.0 4.8 0.00 0.00 0.00 64 1007.1